Simultaneous Nadir Overpasses (SNOs) Predictions

Prediction of SNOs between GOES-15 and METOP-A Satellite Orbit:

Table of predicted SNOs for the next 14.0 days since TLE Epoch: 12/2/2011
Index Date Time (GOES-15) GOES-15 Lat,Lon METOP-A Lat,Lon Distance(km) Time Diff (sec)
1 12/03/2011 06:01:02 0.15,-126.75 -0.07,-127.64 102.36 80
2 12/04/2011 18:19:59 -0.14,-128.19 0.77,-132.27 465.09 80
3 12/05/2011 17:56:43 -0.14,-128.97 -0.52,-127.31 188.97 80
4 12/07/2011 06:18:25 0.13,-129.96 -0.32,-131.94 226.02 80
5 12/08/2011 05:55:08 0.14,-130.75 0.97,-126.98 428.95 80
6 12/09/2011 18:14:05 -0.13,-132.17 -0.24,-131.60 65.08 80
7 12/11/2011 06:35:47 0.12,-133.14 -0.59,-136.23 351.84 80
8 12/12/2011 06:12:31 0.12,-133.93 0.72,-131.27 302.48 80
9 12/13/2011 18:34:07
